Temperature
28 27 26 25 25 26 26 27 27 27 26 25 26 27 28 27 27 26 26 25 25 24 23 23 22 22 21 20 20 20 19 19 18 18 18 17 17 17 17 16 16 16 16 16
27 28 27 26 26 26 27 28 29 28 27 27 28 27 27 27 26 26 25 25 25 24 23 23 22 22 21 21 20 20 20 19 19 18 18 18 17 17 17 17 16 16 16 16
26 27 27 26 27 27 27 28 29 28 27 28 27 27 26 25 25 25 25 24 24 24 23 23 22 22 21 21 21 20 20 19 19 18 18 18 17 17 17 17 17 16 16 16
25 25 24 27 28 28 28 28 28 28 28 28 27 26 25 24 24 24 24 23 23 23 23 22 22 22 21 21 20 20 19 19 19 18 18 17 17 17 17 17 16 16 16 16
24 24 24 26 26 27 26 26 27 27 27 27 26 26 24 23 23 23 22 22 22 22 22 22 22 21 21 21 20 20 19 19 18 18 18 17 17 17 17 16 16 16 16 16
24 24 23 24 25 25 25 24 26 26 26 26 26 24 23 22 22 21 21 21 21 21 21 21 21 21 21 20 20 19 19 18 18 18 17 17 17 17 16 16 16 16 15 15
24 23 23 23 24 25 23 23 25 25 25 24 24 23 22 21 21 20 20 20 20 20 20 20 20 20 19 19 18 18 18 18 17 17 17 17 16 16 16 16 15 15 15 15
23 22 22 23 24 23 22 23 23 23 23 22 22 21 21 20 20 20 19 19 19 18 18 18 18 18 18 17 17 17 17 17 17 16 16 16 16 15 15 15 15 15 14 14
21 21 21 22 22 22 23 23 22 22 22 22 21 21 20 19 18 18 18 18 18 17 17 17 17 17 17 16 16 16 16 16 16 15 15 15 15 15 14 14 14 14 14 14
19 19 19 20 21 22 22 22 22 22 21 21 20 19 18 18 17 17 17 16 16 16 16 15 15 16 15 15 15 15 15 15 15 15 14 14 14 14 14 13 13 13 13 13
18 19 19 19 20 21 21 21 21 21 20 20 19 18 17 17 16 16 16 15 15 15 14 14 14 14 14 14 14 14 14 14 14 14 14 13 13 13 13 13 13 13 13 13
18 18 19 19 19 20 20 20 20 19 18 18 18 17 16 16 15 15 15 15 14 14 14 14 13 13 13 13 13 13 13 13 13 13 13 13 13 13 13 13 13 13 13 12
19 19 19 19 19 19 19 18 18 18 17 17 17 16 16 15 15 15 14 14 14 13 13 13 13 13 13 13 13 13 13 13 13 13 13 13 13 13 13 12 12 12 12 12
18 18 18 18 18 18 18 17 17 17 16 16 16 15 15 15 14 14 14 14 14 13 13 13 13 13 12 12 12 12 12 12 12 12 12 13 13 13 13 13 12 12 12 12
18 18 17 17 17 17 17 16 16 16 15 15 15 15 14 14 14 14 13 13 13 13 13 12 12 12 12 12 12 12 12 12 12 12 12 12 13 13 13 13 12 12 12 12
17 17 16 16 16 16 16 15 15 15 14 14 14 14 13 13 13 13 13 13 12 12 12 12 12 12 12 12 12 12 12 12 12 12 12 12 12 12 12 12 12 12 11 11
16 16 16 15 15 15 15 15 14 14 14 14 14 13 13 13 13 12 12 12 12 12 12 12 11 11 11 11 11 11 12 12 12 12 12 12 12 12 12 11 11 11 11 10
15 15 15 15 15 14 14 14 14 14 14 14 13 13 13 13 12 12 12 12 12 12 11 11 11 11 11 11 11 11 11 12 12 12 12 12 12 11 11 11 11 10 10 10
14 14 14 14 14 14 14 14 14 13 13 13 13 13 13 12 12 12 12 12 12 11 11 11 11 11 11 11 11 11 11 11 12 12 11 11 11 11 11 10 10 10 9 9
14 13 13 13 13 13 13 13 13 13 13 13 13 12 12 12 12 12 12 11 11 11 11 11 11 11 10 10 11 10 11 11 11 11 11 11 11 10 10 10 9 9 9 8
13 13 13 13 13 13 13 13 13 13 13 12 12 12 12 11 11 11 11 11 11 11 11 11 11 10 10 10 10 10 10 11 11 11 10 10 10 10 9 9 9 8 8 8
13 13 13 13 13 13 13 13 13 12 12 12 12 12 11 11 11 11 11 11 11 10 10 10 10 10 10 9 9 10 10 10 10 10 10 9 9 9 8 8 8 7 7 7
12 12 12 12 12 12 12 12 12 12 12 11 11 11 11 11 11 11 11 10 10 10 9 9 9 9 9 9 9 9 9 9 9 9 8 8 8 8 7 7 7 7 6 6
11 11 11 12 12 12 12 12 12 11 11 11 11 11 10 10 10 10 10 10 9 9 9 9 8 8 8 8 8 8 8 8 8 7 7 7 7 7 6 6 6 6 5 5
11 11 11 11 11 12 11 11 11 11 11 11 10 10 10 10 9 9 9 9 8 8 8 8 8 7 7 7 7 7 7 6 6 6 6 6 6 6 5 5 5 5 4 4
11 11 11 11 11 11 11 11 11 10 10 10 10 9 9 9 8 8 8 8 8 7 7 7 7 7 6 6 6 6 6 5 5 5 5 5 5 5 4 4 4 4 4 4
11 11 11 11 10 10 10 10 9 9 9 9 8 8 8 8 8 7 7 7 7 6 6 6 6 6 5 5 5 5 5 4 4 4 4 4 4 3 3 3 3 3 3 3
Wind_Speed
13 7 7 8 12 14 14 14 11 6 4 3 4 4 5 5 7 8 9 11 11 12 12 11 11 11 12 12 12 13 13 13 12 11 10 10 9 9 9 9 11 9 8 8
14 12 10 10 11 14 16 16 12 8 5 5 4 5 5 5 5 5 7 9 9 9 10 11 11 11 11 11 11 11 12 12 11 11 11 11 10 9 9 9 9 9 9 8
12 10 10 12 12 14 13 11 8 5 2 5 6 8 7 6 4 4 5 5 6 7 8 9 10 9 10 10 10 10 9 9 10 11 11 10 11 10 9 9 8 8 8 8
9 9 13 9 7 7 7 6 1 2 3 4 8 9 8 6 4 2 2 3 2 3 4 7 8 10 9 9 9 9 9 8 8 9 10 9 9 9 9 8 8 7 7 7
7 10 10 7 5 4 2 1 2 3 4 6 7 8 8 7 5 4 3 3 3 2 1 2 5 7 8 9 8 8 8 8 8 8 8 8 8 8 7 6 7 7 7 7
9 8 7 2 3 4 4 2 4 5 5 5 4 4 6 7 8 6 5 4 4 3 3 4 3 4 5 6 5 5 4 4 4 5 5 6 6 5 5 4 5 6 7 7
12 9 3 2 3 3 5 2 4 5 6 6 7 7 7 8 9 8 7 8 7 8 7 7 6 6 6 5 4 4 4 3 2 3 4 4 4 3 3 4 5 6 6 6
7 7 3 4 2 1 3 6 6 6 8 10 10 11 11 11 10 10 9 10 10 9 10 9 9 8 9 7 6 5 6 6 5 4 2 2 3 2 2 2 4 4 4 5
1 1 4 5 5 3 6 7 6 6 8 10 11 12 13 12 12 11 11 11 10 11 11 10 10 9 9 8 7 7 7 6 5 4 3 2 2 2 2 3 3 3 3 4
3 4 5 5 5 6 7 7 6 8 9 10 12 13 13 12 12 11 11 11 11 11 11 11 10 10 9 7 7 7 6 5 4 3 2 1 1 1 1 2 2 2 3 3
3 2 4 6 6 6 8 8 9 9 11 13 14 14 13 12 11 11 11 11 10 10 10 10 9 9 8 6 5 5 4 3 2 2 1 0 0 1 1 0 0 2 2 2
1 2 4 4 3 7 9 10 11 13 13 14 14 14 13 11 10 10 10 10 10 9 9 8 8 7 7 6 5 5 3 2 1 1 0 1 2 2 3 3 5 5 5 4
3 5 6 6 6 10 11 13 14 14 14 14 13 13 12 11 10 10 9 9 8 8 7 6 6 5 5 5 5 4 3 3 2 2 1 2 2 3 3 4 7 8 9 10
6 7 9 10 10 11 13 15 15 14 15 14 13 12 11 10 9 9 8 7 6 6 5 5 5 5 4 4 3 3 3 2 3 3 3 3 3 4 4 3 3 4 7 12
8 9 11 12 12 12 12 14 15 14 14 13 12 11 10 10 9 8 8 7 6 6 6 6 5 4 3 3 3 4 4 3 2 3 5 5 4 4 4 4 4 5 5 4
10 11 12 13 13 12 13 13 13 12 12 11 10 9 9 8 8 7 7 7 6 7 6 5 5 5 4 5 5 4 4 5 5 5 6 6 5 5 5 5 5 5 6 5
10 11 11 12 13 12 11 11 10 9 9 8 8 7 7 7 6 6 6 5 4 3 3 3 4 5 5 5 6 6 6 5 5 6 6 6 5 5 6 6 7 7 6 5
12 11 11 11 11 11 11 10 8 8 7 6 6 6 5 5 5 4 4 4 4 3 3 3 3 4 5 4 5 7 8 8 7 7 5 5 5 6 7 7 8 9 7 7
14 13 13 12 11 10 9 8 7 7 6 5 5 4 4 4 3 3 4 4 4 3 3 2 3 5 5 4 6 7 9 9 8 7 6 6 6 7 7 8 8 8 9 9
12 11 10 9 8 7 7 6 5 5 4 4 4 3 3 3 3 4 4 4 3 3 4 4 4 5 5 6 7 9 10 10 10 8 7 7 7 7 7 8 8 8 8 9
9 8 8 7 6 5 5 4 4 4 4 4 4 4 4 4 5 4 5 4 2 4 6 5 3 4 5 7 9 10 10 10 10 9 9 8 7 7 8 8 8 8 8 9
8 7 6 6 5 5 5 4 4 4 4 5 5 5 5 6 6 5 4 3 2 4 5 6 4 5 7 10 10 11 11 11 10 9 8 7 7 8 8 9 8 8 8 9
6 6 6 5 5 5 5 5 5 5 5 5 5 5 6 6 7 6 6 4 3 4 6 6 4 5 8 10 10 11 11 10 10 9 8 7 7 7 8 9 9 8 9 9
5 5 6 5 6 5 5 5 5 4 5 5 4 4 5 6 5 5 5 5 5 5 7 5 3 6 8 9 9 9 8 9 9 9 9 9 8 8 9 9 9 9 9 11
3 4 4 5 6 5 5 5 4 4 5 5 5 6 5 5 6 6 6 7 6 6 7 6 5 6 8 8 8 8 7 7 8 8 8 8 8 8 8 9 9 10 9 9
3 4 4 4 5 5 5 5 6 6 6 6 6 6 6 6 7 6 5 7 8 7 7 6 6 5 6 6 7 7 8 8 8 8 8 9 9 9 8 9 11 10 9 9
3 3 2 3 5 6 6 7 7 7 7 7 8 8 8 8 7 7 8 7 7 7 6 6 7 7 7 7 7 7 7 7 8 8 8 8 8 9 9 11 10 9 9 10
Wind_Direction
249 215 211 222 247 266 266 264 264 256 251 217 207 175 155 153 157 158 163 169 171 170 171 174 176 177 180 184 183 184 182 187 187 187 189 190 191 191 190 193 200 199 201 205
250 233 218 228 237 241 246 253 256 246 213 185 177 138 131 125 142 162 170 170 170 169 168 173 178 180 183 185 184 182 184 189 187 187 191 193 192 193 195 198 205 199 204 209
250 252 254 248 245 242 243 255 260 265 192 156 138 122 114 112 127 182 172 163 168 171 170 176 177 182 187 185 181 181 187 189 186 188 193 196 198 195 197 200 204 207 209 214
250 254 252 257 266 266 257 256 266 119 123 116 121 120 112 113 123 109 102 118 114 165 171 175 178 181 182 183 181 183 186 191 190 191 195 194 199 196 195 199 202 206 211 220
244 243 252 268 298 306 286 307 51 106 94 95 107 114 99 94 98 91 68 81 86 85 152 165 174 178 174 177 179 186 189 191 192 191 193 192 196 198 194 197 203 208 214 218
242 242 250 272 312 320 318 241 57 82 87 98 109 106 84 81 80 73 60 67 79 83 68 66 66 120 150 160 157 162 171 177 183 175 178 184 186 190 192 194 212 217 221 221
240 245 242 6 308 285 236 175 78 81 86 88 78 88 94 86 87 83 71 66 69 69 65 56 52 71 92 92 97 110 109 113 122 145 157 172 169 175 189 204 216 221 229 229
240 236 238 6 32 48 82 82 74 74 89 94 95 98 90 81 77 76 76 74 75 72 66 59 61 69 73 66 64 76 84 83 78 78 103 161 146 156 176 228 236 236 242 250
332 71 53 46 72 101 107 95 93 98 97 104 103 98 94 86 76 68 67 67 69 73 68 60 57 61 66 56 57 67 76 83 84 92 89 68 124 175 200 223 238 244 250 258
67 49 37 31 62 64 84 94 96 99 104 103 101 98 92 87 81 74 67 64 65 69 67 60 55 58 57 52 54 62 66 70 74 76 84 73 109 172 216 227 237 256 268 264
84 64 70 48 47 72 87 87 85 87 94 97 97 95 93 88 82 78 73 68 68 69 69 64 58 54 53 51 55 61 64 69 75 66 22 37 145 252 223 162 165 244 279 298
65 39 83 90 68 84 87 84 85 85 83 87 92 95 92 87 83 81 79 76 73 70 68 66 62 54 43 37 39 43 43 34 30 90 308 261 233 242 232 218 200 211 227 241
72 73 86 91 81 84 87 86 86 87 91 90 87 88 89 88 85 82 78 75 74 72 70 70 70 64 55 44 39 33 14 356 338 331 316 295 289 276 270 244 228 235 240 243
81 88 89 84 85 85 88 90 89 88 85 85 85 84 82 78 74 72 72 75 76 77 74 67 57 52 43 30 20 356 333 348 317 322 329 311 297 291 285 280 279 270 243 238
75 90 96 92 89 88 89 92 89 84 81 78 76 76 76 74 68 63 58 55 52 54 54 49 41 33 23 2 348 334 323 325 335 326 305 297 291 290 298 305 303 299 299 274
86 91 93 90 85 84 85 85 85 83 80 79 74 70 69 69 65 56 48 43 36 36 35 29 19 12 10 357 339 314 296 284 280 286 291 296 295 300 308 310 305 303 305 314
93 91 94 94 90 88 87 86 87 88 85 82 78 74 69 64 58 49 36 27 25 23 12 11 11 0 348 339 330 319 311 298 261 271 287 299 305 306 305 304 305 307 310 315
92 90 90 92 95 93 86 83 81 80 77 77 74 67 57 51 41 31 17 6 358 353 350 355 357 333 327 335 329 316 308 306 300 296 301 303 310 307 305 306 305 307 309 305
87 86 84 81 82 83 80 73 69 65 58 57 55 50 39 34 25 3 342 326 320 319 331 354 323 305 314 338 321 298 295 298 301 304 307 309 303 302 304 302 303 307 309 309
85 85 86 86 83 79 75 67 63 55 44 37 34 25 12 6 356 336 321 319 330 337 333 336 311 309 322 342 326 308 306 307 307 308 308 306 306 305 305 305 308 310 312 311
85 83 81 76 68 62 60 50 39 34 26 10 4 357 351 336 322 314 308 308 334 344 321 310 303 332 353 341 314 307 308 310 309 309 311 312 313 313 311 311 312 313 313 313
64 61 55 50 45 35 24 10 10 9 5 356 351 346 334 320 313 313 312 321 13 19 332 322 0 29 358 328 315 311 310 311 312 313 317 323 323 322 321 320 317 316 316 316
46 39 29 21 13 5 357 353 359 358 351 347 343 339 333 332 325 319 321 345 3 3 330 331 9 356 330 317 313 311 313 316 318 319 324 330 326 324 323 320 320 320 320 318
31 15 2 354 348 340 346 350 348 342 333 324 332 341 328 319 320 330 349 6 8 348 326 336 325 313 308 311 314 321 328 332 333 331 330 327 326 326 325 323 324 324 324 323
18 346 337 338 331 342 350 341 342 346 337 343 344 348 340 339 334 335 338 333 338 329 322 325 319 313 313 323 332 339 341 344 340 333 328 327 325 326 328 326 329 328 327 325
335 320 342 336 343 337 340 348 349 348 346 349 347 347 342 337 335 334 328 328 334 337 332 338 342 332 334 341 344 344 342 339 338 338 336 331 330 333 334 334 333 333 330 328
312 319 324 345 5 2 356 353 349 348 348 348 342 337 335 335 338 342 343 343 346 349 351 349 346 343 345 348 348 347 348 349 350 349 345 343 343 342 341 339 338 335 332 330
Height
1430 1435 1440 1448 1451 1446 1446 1445 1447 1447 1449 1447 1443 1443 1445 1449 1452 1455 1459 1463 1467 1471 1475 1479 1483 1487 1490 1493 1497 1500 1502 1505 1507 1509 1512 1514 1516 1519 1521 1522 1524 1526 1527 1529
1434 1431 1436 1442 1442 1441 1442 1437 1434 1436 1441 1437 1439 1443 1446 1449 1451 1455 1459 1461 1465 1469 1472 1476 1479 1483 1487 1490 1493 1496 1498 1501 1504 1506 1508 1510 1512 1514 1517 1518 1520 1522 1523 1525
1438 1432 1435 1443 1436 1434 1433 1429 1429 1436 1437 1435 1438 1443 1447 1450 1454 1456 1458 1460 1464 1467 1470 1472 1476 1479 1482 1486 1489 1492 1494 1497 1500 1502 1504 1506 1509 1510 1512 1514 1516 1517 1519 1521
1439 1442 1455 1435 1422 1424 1426 1426 1425 1428 1431 1434 1438 1443 1448 1451 1454 1456 1458 1460 1462 1465 1468 1470 1473 1475 1478 1482 1485 1488 1490 1493 1496 1498 1499 1502 1504 1506 1507 1509 1510 1512 1514 1516
1442 1447 1443 1432 1427 1426 1430 1433 1428 1429 1432 1436 1439 1443 1449 1453 1455 1457 1459 1460 1462 1464 1465 1467 1469 1472 1474 1478 1481 1484 1486 1489 1492 1494 1496 1498 1499 1501 1503 1505 1505 1507 1509 1511
1437 1445 1452 1440 1429 1427 1433 1440 1432 1433 1435 1438 1440 1446 1454 1454 1455 1458 1459 1460 1461 1463 1464 1465 1466 1468 1471 1474 1477 1480 1482 1485 1487 1490 1492 1494 1496 1498 1499 1501 1502 1502 1503 1506
1436 1442 1440 1436 1431 1430 1446 1444 1435 1436 1438 1441 1444 1449 1455 1456 1457 1459 1460 1461 1462 1463 1464 1464 1466 1467 1469 1472 1474 1476 1479 1481 1483 1484 1488 1491 1492 1494 1496 1497 1498 1499 1500 1501
1435 1444 1448 1435 1432 1437 1440 1437 1437 1439 1442 1445 1448 1451 1455 1458 1460 1461 1462 1463 1463 1464 1465 1466 1466 1468 1469 1471 1473 1475 1477 1479 1480 1482 1485 1487 1489 1490 1492 1493 1494 1495 1495 1496
1442 1445 1440 1437 1438 1438 1438 1439 1442 1444 1446 1448 1451 1454 1457 1460 1462 1464 1465 1465 1466 1467 1467 1468 1469 1470 1471 1472 1474 1476 1477 1478 1480 1481 1482 1484 1486 1487 1489 1490 1491 1491 1491 1492
1442 1443 1442 1442 1441 1441 1441 1444 1445 1447 1449 1451 1454 1457 1460 1463 1465 1467 1468 1468 1469 1470 1470 1471 1472 1472 1473 1474 1474 1475 1477 1478 1479 1481 1482 1483 1484 1485 1486 1487 1487 1488 1488 1488
1446 1446 1445 1445 1446 1446 1446 1447 1448 1450 1452 1455 1458 1461 1464 1466 1468 1470 1471 1472 1472 1473 1474 1475 1475 1475 1475 1476 1476 1477 1477 1479 1480 1481 1481 1482 1482 1483 1483 1484 1484 1484 1484 1484
1448 1446 1445 1448 1448 1448 1449 1450 1452 1454 1457 1460 1462 1465 1468 1470 1472 1473 1474 1475 1476 1477 1478 1478 1478 1478 1479 1478 1478 1478 1479 1480 1480 1481 1481 1481 1480 1480 1480 1481 1481 1481 1481 1481
1447 1447 1448 1450 1451 1452 1453 1454 1456 1458 1461 1464 1467 1469 1472 1474 1475 1477 1477 1478 1479 1480 1481 1481 1481 1481 1480 1480 1480 1480 1480 1480 1480 1480 1480 1480 1479 1479 1479 1478 1477 1477 1477 1477
1449 1450 1451 1453 1455 1457 1458 1459 1461 1463 1466 1469 1472 1474 1475 1477 1479 1480 1481 1481 1482 1483 1483 1483 1484 1483 1482 1482 1481 1481 1481 1480 1480 1480 1479 1479 1479 1478 1476 1475 1474 1474 1473 1472
1452 1454 1456 1457 1459 1461 1463 1464 1466 1469 1472 1474 1476 1478 1479 1480 1481 1483 1483 1484 1484 1485 1484 1484 1485 1484 1483 1483 1482 1481 1481 1480 1479 1479 1479 1478 1477 1476 1474 1473 1472 1471 1470 1469
1457 1458 1460 1461 1463 1466 1468 1470 1472 1474 1476 1478 1479 1481 1482 1483 1484 1485 1485 1485 1486 1486 1485 1485 1485 1485 1484 1483 1482 1481 1480 1479 1478 1478 1477 1476 1475 1474 1472 1471 1470 1468 1467 1465
1461 1463 1464 1466 1468 1471 1472 1474 1476 1478 1479 1481 1482 1483 1484 1485 1485 1486 1486 1486 1486 1486 1486 1486 1485 1485 1484 1483 1481 1480 1479 1478 1477 1476 1475 1474 1472 1471 1469 1468 1466 1465 1463 1461
1466 1468 1469 1471 1473 1475 1477 1478 1480 1481 1482 1483 1484 1485 1485 1486 1486 1487 1487 1487 1487 1486 1486 1485 1484 1483 1483 1481 1480 1479 1478 1476 1475 1474 1472 1471 1469 1468 1466 1465 1463 1461 1459 1457
1471 1472 1474 1476 1478 1479 1480 1481 1483 1484 1484 1485 1485 1486 1486 1486 1487 1487 1487 1486 1486 1485 1485 1483 1483 1482 1481 1479 1478 1477 1476 1474 1472 1471 1469 1467 1465 1464 1462 1460 1458 1456 1454 1452
1475 1477 1479 1480 1481 1482 1483 1485 1485 1486 1486 1487 1487 1487 1487 1487 1487 1486 1486 1485 1484 1484 1483 1482 1481 1480 1479 1477 1476 1474 1473 1471 1469 1467 1465 1463 1461 1460 1458 1456 1454 1451 1449 1446
1480 1481 1482 1483 1484 1485 1486 1487 1487 1487 1487 1487 1487 1487 1487 1486 1486 1485 1484 1483 1482 1481 1481 1480 1478 1477 1475 1474 1473 1471 1470 1468 1465 1463 1461 1459 1457 1455 1453 1451 1449 1446 1444 1441
1483 1484 1485 1486 1486 1487 1487 1487 1487 1487 1487 1487 1487 1486 1486 1485 1484 1483 1483 1482 1480 1479 1478 1478 1476 1473 1472 1470 1469 1468 1466 1464 1462 1459 1457 1455 1452 1450 1448 1446 1443 1441 1438 1435
1486 1486 1487 1487 1488 1488 1488 1488 1487 1487 1487 1486 1486 1485 1485 1484 1483 1482 1481 1479 1478 1476 1475 1474 1472 1470 1468 1467 1465 1464 1462 1460 1457 1455 1453 1451 1448 1446 1444 1441 1439 1436 1433 1430
1487 1488 1488 1488 1488 1488 1488 1487 1487 1486 1486 1485 1484 1483 1483 1482 1481 1479 1478 1477 1475 1474 1472 1471 1469 1466 1465 1463 1462 1460 1458 1455 1453 1451 1449 1447 1444 1442 1439 1437 1434 1431 1428 1425
1488 1489 1489 1488 1488 1487 1487 1486 1486 1485 1484 1483 1483 1482 1481 1480 1479 1477 1475 1474 1472 1471 1469 1467 1465 1463 1461 1460 1458 1456 1454 1451 1449 1447 1445 1443 1440 1438 1435 1433 1430 1426 1423 1419
1488 1488 1488 1488 1487 1487 1486 1485 1485 1484 1483 1482 1481 1480 1479 1478 1476 1474 1473 1471 1469 1467 1466 1464 1462 1460 1458 1457 1454 1452 1450 1448 1446 1443 1441 1439 1436 1434 1431 1428 1425 1422 1419 1415
1487 1487 1487 1487 1486 1486 1485 1485 1484 1483 1482 1481 1480 1478 1477 1475 1473 1472 1470 1468 1466 1464 1463 1461 1459 1458 1456 1454 1452 1450 1447 1445 1443 1440 1438 1436 1433 1430 1428 1425 1422 1419 1415 1411